FW7275 Weather Reports


Display with metric or nautical units.
time (UTC)temp
F
wind
direction
speed
MPH
gust
MPH
rain 1hr
in
rain 24hr
in
rain mn
in
humidity
%
barometer
mb
20260510032028 43 0 0.0 0.0 0.00 0.00 0.00 85
20260510031023 43 0 0.0 0.0 0.00 0.00 0.00 84
20260510030031 43 0 0.0 0.0 0.00 0.00 0.00 84
20260510025026 44 0 0.0 0.0 0.00 0.00 0.00 84
20260510024027 44 0 0.0 0.0 0.00 0.00 0.00 84
20260510023034 44 0 0.0 0.0 0.00 0.00 0.00 84
20260510022025 44 0 0.0 0.0 0.00 0.00 0.00 84
20260510015032 45 0 0.0 0.0 0.00 0.00 0.00 83
20260510014026 45 0 0.0 0.0 0.00 0.00 0.00 83
20260510013020 46 0 0.0 0.0 0.00 0.00 0.00 82
20260510012022 46 0 0.0 0.0 0.00 0.00 0.00 83
20260510011029 46 0 0.0 0.0 0.00 0.00 0.00 82
20260510005034 46 0 0.0 0.0 0.00 0.00 0.00 81
20260510004028 47 0 0.0 0.0 0.00 0.00 0.00 81
20260510003031 47 0 0.0 0.0 0.00 0.00 0.00 81
20260510002035 48 0 0.0 0.0 0.00 0.00 0.00 81
20260510001026 48 0 0.0 0.0 0.00 0.00 0.00 80
20260510000050 48 0 0.0 0.0 0.00 0.00 0.00 79
20260509234023 49 0 0.0 0.0 0.00 0.00 0.00 77
20260509233026 49 0 0.0 0.0 0.00 0.00 0.00 77
20260509232034 49 0 0.0 0.0 0.00 0.00 0.00 77
20260509231031 50 0 0.0 0.0 0.00 0.00 0.00 77
20260509225030 50 0 0.0 0.0 0.00 0.00 0.00 76
20260509224049 51 0 0.0 0.0 0.00 0.00 0.00 76
20260509222022 51 0 0.0 0.0 0.00 0.00 0.00 73
20260509221024 52 0 0.0 0.0 0.00 0.00 0.00 73
20260509215024 53 0 0.0 0.0 0.00 0.00 0.00 71
20260509214031 54 0 0.0 0.0 0.00 0.00 0.00 69
20260509213032 55 0 0.0 0.0 0.00 0.00 0.00 68
20260509212030 55 0 0.0 0.0 0.00 0.00 0.00 67
20260509211023 56 0 0.0 0.0 0.00 0.00 0.00 64
20260509210054 57 0 0.0 0.0 0.00 0.00 0.00 62
20260509205035 58 0 0.0 0.0 0.00 0.00 0.00 59
20260509202030 61 0 0.0 0.0 0.00 0.00 0.00 55
20260509201030 62 0 0.0 0.0 0.00 0.00 0.00 54
20260509200041 62 0 0.0 0.0 0.00 0.00 0.00 54
20260509195033 62 0 0.0 0.0 0.00 0.00 0.00 54
20260509194033 62 0 0.0 0.0 0.00 0.00 0.00 54
20260509193023 62 0 0.0 0.0 0.00 0.00 0.00 54
20260509192023 62 0 0.0 0.0 0.00 0.00 0.00 54
20260509191020 63 0 0.0 0.0 0.00 0.00 0.00 54
20260509185027 64 0 0.0 0.0 0.00 0.00 0.00 53
20260509184020 64 0 0.0 0.0 0.00 0.00 0.00 53
20260509183032 65 0 0.0 0.0 0.00 0.00 0.00 52
20260509182026 65 0 0.0 0.0 0.00 0.00 0.00 51
20260509181023 66 0 0.0 0.0 0.00 0.00 0.00 51
20260509180032 67 0 0.0 0.0 0.00 0.00 0.00 51
20260509175027 67 0 0.0 0.0 0.00 0.00 0.00 50
20260509174020 68 0 0.0 0.0 0.00 0.00 0.00 50
20260509173026 68 0 0.0 0.0 0.00 0.00 0.00 50
20260509172023 69 0 0.0 0.0 0.00 0.00 0.00 49
20260509171026 69 0 0.0 0.0 0.00 0.00 0.00 48
20260509165030 70 0 0.0 0.0 0.00 0.00 0.00 48
20260509164023 72 0 0.0 0.0 0.00 0.00 0.00 46
20260509163025 73 0 0.0 0.0 0.00 0.00 0.00 46
20260509162023 74 0 0.0 0.0 0.00 0.00 0.00 45
20260509161022 73 0 0.0 0.0 0.00 0.00 0.00 46
20260509160033 73 0 0.0 0.0 0.00 0.00 0.00 46
20260509155027 72 0 0.0 0.0 0.00 0.00 0.00 47
20260509154029 72 0 0.0 0.0 0.00 0.00 0.00 47
20260509153032 73 0 0.0 0.0 0.00 0.00 0.00 47
20260509152029 74 0 0.0 0.0 0.00 0.00 0.00 45
20260509151021 74 0 0.0 0.0 0.00 0.00 0.00 45
20260509150035 74 0 0.0 0.0 0.00 0.00 0.00 45
20260509145024 75 0 0.0 0.0 0.00 0.00 0.00 44
20260509144032 75 0 0.0 0.0 0.00 0.00 0.00 45
20260509143035 75 0 0.0 0.0 0.00 0.00 0.00 44
20260509142023 75 0 0.0 0.0 0.00 0.00 0.00 45
20260509141024 75 0 0.0 0.0 0.00 0.00 0.00 45
20260509140025 74 0 0.0 0.0 0.00 0.00 0.00 44
20260509135031 75 0 0.0 0.0 0.00 0.00 0.00 45
20260509134020 74 0 0.0 0.0 0.00 0.00 0.00 46
20260509133028 73 0 0.0 0.0 0.00 0.00 0.00 45
20260509132028 75 0 0.0 0.0 0.00 0.00 0.00 44
20260509131025 75 0 0.0 0.0 0.00 0.00 0.00 45
20260509130028 75 0 0.0 0.0 0.00 0.00 0.00 46
20260509124018 72 0 0.0 0.0 0.00 0.00 0.00 48
20260509123025 73 0 0.0 0.0 0.00 0.00 0.00 47
20260509122024 74 0 0.0 0.0 0.00 0.00 0.00 47
20260509121023 74 0 0.0 0.0 0.00 0.00 0.00 46
20260509115025 74 0 0.0 0.0 0.00 0.00 0.00 48
20260509114030 74 0 0.0 0.0 0.00 0.00 0.00 49
20260509113037 74 0 0.0 0.0 0.00 0.00 0.00 49
20260509112021 73 0 0.0 0.0 0.00 0.00 0.00 51
20260509111028 72 0 0.0 0.0 0.00 0.00 0.00 52
20260509110035 72 0 0.0 0.0 0.00 0.00 0.00 54
20260509104022 71 0 0.0 0.0 0.00 0.00 0.00 57
20260509103021 70 0 0.0 0.0 0.00 0.00 0.00 58
20260509102017 69 0 0.0 0.0 0.00 0.00 0.00 61
20260509101020 68 0 0.0 0.0 0.00 0.00 0.00 63
20260509100031 67 0 0.0 0.0 0.00 0.00 0.00 65
20260509095034 64 0 0.0 0.0 0.00 0.00 0.00 68
20260509094023 64 0 0.0 0.0 0.00 0.00 0.00 68
20260509093025 61 0 0.0 0.0 0.00 0.00 0.00 71
20260509092022 61 0 0.0 0.0 0.00 0.00 0.00 72
20260509091031 60 0 0.0 0.0 0.00 0.00 0.00 72
20260509090029 60 0 0.0 0.0 0.00 0.00 0.00 73
20260509085017 58 0 0.0 0.0 0.00 0.00 0.00 75
20260509084030 57 0 0.0 0.0 0.00 0.00 0.00 77
20260509083031 56 0 0.0 0.0 0.00 0.00 0.00 78
20260509082017 55 0 0.0 0.0 0.00 0.00 0.00 79
20260509081031 55 0 0.0 0.0 0.00 0.00 0.00 80
20260509074019 55 0 0.0 0.0 0.00 0.00 0.00 79
20260509073037 56 0 0.0 0.0 0.00 0.00 0.00 79
20260509072017 55 0 0.0 0.0 0.00 0.00 0.00 79
20260509070036 55 0 0.0 0.0 0.00 0.00 0.00 79
20260509065020 55 0 0.0 0.0 0.00 0.00 0.00 78
20260509064019 54 0 0.0 0.0 0.00 0.00 0.00 79
20260509063026 54 0 0.0 0.0 0.00 0.00 0.00 79
20260509061023 54 0 0.0 0.0 0.00 0.00 0.00 80
20260509060029 54 0 0.0 0.0 0.00 0.00 0.00 80
20260509055029 53 0 0.0 0.0 0.00 0.00 0.00 82
20260509054019 52 0 0.0 0.0 0.00 0.00 0.00 83
20260509053021 50 0 0.0 0.0 0.00 0.00 0.00 86
20260509052029 49 0 0.0 0.0 0.00 0.00 0.00 86
20260509051031 48 0 0.0 0.0 0.00 0.00 0.00 86
20260509050040 48 0 0.0 0.0 0.00 0.00 0.00 86
20260509044030 47 0 0.0 0.0 0.00 0.00 0.00 86
20260509043023 48 0 0.0 0.0 0.00 0.00 0.00 86
20260509042018 48 0 0.0 0.0 0.00 0.00 0.00 86
20260509041030 48 0 0.0 0.0 0.00 0.00 0.00 86
20260509040035 47 0 0.0 0.0 0.00 0.00 0.00 86
20260509035028 47 0 0.0 0.0 0.00 0.00 0.00 86
20260509034034 47 0 0.0 0.0 0.00 0.00 0.00 86
20260509033023 47 0 0.0 0.0 0.00 0.00 0.00 86